Location: LDNL
(36.4545°S, 141.6685°E)
Time: 23:35:56
(UTC+11:00)

ISS - Pass Details

Date: 10 December 2021
Orbit: 413 x 422 km, 51.6° (Epoch: 22 January)

Event Time Altitude Azimuth Distance (km) Brightness Sun altitude
Exits shadow 00:50:47 13° 161° (SSE) 1,367 -0.5 -30.1°
Drops below altitude 10° 00:51:15 10° 156° (SSE) 1,513 -0.3 -30.1°
Sets 00:53:40 0° 140° (SE) 2,383 0.6 -30.2°
